Showing default

HERMES 4, 63833

Orbit data source: Space-Track

HERMES 4, 63833 is a payload satellite owned by ASI (IT) in SSO that was launched on Sat, 15 Mar 2025 UTC via an FALCON 9 launch vehicle from the Air Force Western Test Range (AFWTR). Payload-class satellites include a variety of spacecraft equipped with specific instruments for various scientific and technological missions. These include communications satellites like Starlink; space stations such as the ISS; scientific satellites like the Hubble; Earth observation satellites from companies like Planet Labs, Umbra, and HawkEye 360; GPS; miniature CubeSats for education and research; and military/defense satellites.

Loading next visibility...
Identifier
63833, 2025-052BP
Orbit
SSO
Country
Flag of ITIT
Related business
Manufacturer
MILANP/INAFI
Mission
Operational Civil Astronomy
Bus & Motor
CUBESAT 3U, Unknown motor
Mass
5 kg wet, 5 kg dry
Launch date (UTC)
2025-03-15 (1 year ago)
Launch vehicle
FALCON 9
Launch site
Air Force Western Test Range (AFWTR)
Object type
Payload
Rocket body
Debris
Shape & HBR
Box, 14.5 m
Radar Cross Section
0.035 m², Medium (>0.1 m² and < 1m²)

Expand to show TLE details & history
Last TLE update: 6 hours ago

TLE from 6 hours ago
0 HERMES 4
1 63833U 25052BP  26193.13668425  .00008592  00000-0  28969-3 0  9994
2 63833  97.3850  86.8352 0005064 106.6829 253.4968 15.30956183 73767
Epoch: 2026-07-12T03:16Z
TLE epoch observation values (Epoch: 2026-07-12T03:16:49.519Z)
Latitude
-0.00004°
Longitude
107.589°
Altitude
477.051 km
Speed
7.627 km/s
True Right ascension
05h 47m 20s
True Declination
0° 00' 00"
Sunlit
Object was in daylight at epoch
Visualization orbit readout
Latitude
Unknown
Longitude
Unknown
Altitude
Unknown
Speed
Unknown
Apparent Right ascension
Unknown
Apparent Declination
Unknown
Sunlit
N/A
Visualization observer readout
Local Sidereal Time
21:56:54
Azimuth
Unknown
Elevation
Unknown
Doppler factor
Unknown
Orbital elements
Apogee altitude
473.376 km
Perigee altitude
466.441 km
Semi-major axis
6,848.046 km
Eccentricity
0.00051
Inclination
97.385°
RAAN
86.8352°
Arg. of periapsis
106.6829°
True anomaly
253.44117°
Mean anomaly
253.4968°
Eccentric anomaly
253.46898°
Mean motion
3.82995 °/min
Orbital period
94 mins
BSTAR
0.00028969
Loading maneuver chart data...
Computing Atmospheric mass density...
Loading historical data...
Loading historical data...
Loading historical data...
Loading historical data...
Loading historical data...
Loading historical data...
Loading historical data...

Documentation

Showing up to 5 results
|